Location: Greenwich
(51.4790°N, 0.0090°E)
Time: 06:10:56
(UTC+01:00)

Tiros 1 - Pass Details

Date: 25 April 2024
Orbit: 624 x 657 km, 48.4° (Epoch: 25 May)

Event Time Altitude Azimuth Distance (km) Brightness Sun altitude
Exits shadow 04:48:47 - 273° (W) 2,443 9.6 -8.2°
Reaches altitude 10° 04:50:07 10° 265° (W) 2,004 9.1 -8.1°
Maximum altitude 04:53:46 24° 212° (SSW) 1,315 8.2 -7.6°
Drops below altitude 10° 04:57:24 10° 159° (SSE) 1,989 9.6 -7.1°
Sets 05:00:03 0° 146° (SE) 2,891 10.5 -6.8°
